User: anonymous
Location: Vale
(35.4830°N, 81.3830°W)
Time: 05:52:25
(UTC-04:00)
Language:

Cosmos 2237 Rocket - Orbit

View from above orbital plane
View from above orbital plane
View from above satellite
View from above satellite

Ground track
Ground track

The orbit data is extracted from the following two-line orbital elements,

1 22566U 93016B   14202.83434544 -.00000136  00000-0 -45534-4 0  1050
2 22566 071.0099 134.6067 0012494 303.2826 056.7099 14.14851092101148
Epoch (UTC): 21 July 2014 20:01:27
Eccentricity: 0.0012494
inclination: 71.0099°
perigee height: 834 km
apogee height: 852 km
right ascension of ascending node: 134.6067°
argument of perigee: 303.2826°
revolutions per day: 14.14851092
mean anomaly at epoch: 56.7099°
orbit number at epoch: 10114

The dashed part of the orbit path shows where the satellite is in the earth's shadow,  

DLR